Location: Carnoy
(49.9849°N, 2.7558°E)
Time: 15:30:16
(UTC+00:00)

SMAP - Pass Details

Date: 24 January 2020
Orbit: 681 x 683 km, 98.1° (Epoch: 21 February)

Event Time Altitude Azimuth Distance (km) Brightness Sun altitude
Rises 17:00:53 0° 163° (SSE) 3,033 6.5 -5.4°
Reaches altitude 10° 17:03:06 10° 163° (SSE) 2,122 5.7 -5.8°
Maximum altitude 17:07:45 87° 76° (ENE) 691 3.1 -6.4°
Drops below altitude 10° 17:12:27 10° 346° (NNW) 2,138 5.5 -7.1°
Sets 17:14:41 0° 347° (NNW) 3,057 6.3 -7.5°
